| time (UTC) | temp C | wind direction | speed KPH | gust KPH | rain 1hr cm | rain 24hr cm | rain mn cm | humidity % | barometer mb |
| 20260504050006 | 0 | 314 | 0.0 | 1.6 | 0.00 | 0.51 | 0.00 | 98 | 1016.9 |
| 20260504045505 | 0 | 314 | 0.0 | 1.6 | 0.00 | 0.51 | 0.00 | 98 | 1017.1 |
| 20260504045020 | 0 | 0 | 0.0 | 0.0 | 0.00 | 0.51 | 0.00 | 97 | 1017.1 |
| 20260504044505 | 0 | 0 | 0.0 | 0.0 | 0.00 | 0.51 | 0.00 | 97 | 1017.1 |
| 20260504044005 | -1 | 0 | 0.0 | 0.0 | 0.00 | 0.51 | 0.00 | 97 | 1017.1 |
| 20260504043507 | -1 | 0 | 0.0 | 0.0 | 0.00 | 0.51 | 0.00 | 97 | 1017.0 |
| 20260504043005 | -1 | 0 | 0.0 | 0.0 | 0.00 | 0.51 | 0.00 | 97 | 1017.1 |
| 20260504042005 | -1 | 0 | 0.0 | 0.0 | 0.00 | 0.51 | 0.00 | 96 | 1017.0 |
| 20260504041505 | -1 | 0 | 0.0 | 0.0 | 0.00 | 0.51 | 0.00 | 96 | 1016.9 |
| 20260504041005 | -1 | 0 | 0.0 | 0.0 | 0.00 | 0.51 | 0.00 | 96 | 1017.1 |
| 20260504040505 | -1 | 0 | 0.0 | 0.0 | 0.00 | 0.51 | 0.00 | 96 | 1016.8 |
| 20260504040005 | -1 | 0 | 0.0 | 0.0 | 0.00 | 0.51 | 0.00 | 96 | 1017.0 |
| 20260504035506 | -1 | 0 | 0.0 | 0.0 | 0.00 | 0.51 | 0.00 | 96 | 1016.8 |
| 20260504035005 | -1 | 0 | 0.0 | 0.0 | 0.00 | 0.51 | 0.00 | 96 | 1016.7 |
| 20260504034006 | -1 | 0 | 0.0 | 0.0 | 0.00 | 0.51 | 0.00 | 96 | 1016.7 |
| 20260504033505 | -1 | 0 | 0.0 | 0.0 | 0.00 | 0.51 | 0.00 | 96 | 1016.7 |
| 20260504033005 | -1 | 0 | 0.0 | 0.0 | 0.00 | 0.51 | 0.00 | 96 | 1016.8 |
| 20260504032505 | -1 | 0 | 0.0 | 0.0 | 0.00 | 0.51 | 0.00 | 96 | 1016.6 |
| 20260504032005 | -1 | 0 | 0.0 | 0.0 | 0.00 | 0.51 | 0.00 | 97 | 1016.6 |
| 20260504031506 | -1 | 0 | 0.0 | 0.0 | 0.00 | 0.51 | 0.00 | 96 | 1016.7 |
| 20260504030505 | -1 | 0 | 0.0 | 0.0 | 0.00 | 0.51 | 0.00 | 97 | 1016.7 |
| 20260504025506 | -1 | 0 | 0.0 | 0.0 | 0.00 | 0.51 | 0.00 | 97 | 1016.9 |
| 20260504025006 | -1 | 0 | 0.0 | 0.0 | 0.00 | 0.51 | 0.00 | 97 | 1016.7 |
| 20260504024505 | -1 | 135 | 0.0 | 1.6 | 0.00 | 0.51 | 0.00 | 97 | 1016.7 |
| 20260504023505 | -1 | 337 | 0.0 | 1.6 | 0.00 | 0.51 | 0.00 | 97 | 1016.7 |
| 20260504022505 | -1 | 338 | 0.0 | 1.6 | 0.00 | 0.51 | 0.00 | 97 | 1017.0 |
| 20260504022005 | -1 | 0 | 0.0 | 0.0 | 0.00 | 0.51 | 0.00 | 97 | 1017.0 |
| 20260504021505 | -1 | 0 | 0.0 | 0.0 | 0.00 | 0.51 | 0.00 | 97 | 1016.9 |
| 20260504021006 | -1 | 0 | 0.0 | 0.0 | 0.00 | 0.51 | 0.00 | 97 | 1017.0 |
| 20260504020506 | -1 | 0 | 0.0 | 0.0 | 0.00 | 0.51 | 0.00 | 97 | 1017.1 |
| 20260504015506 | -1 | 0 | 0.0 | 0.0 | 0.00 | 0.51 | 0.00 | 97 | 1016.9 |
| 20260504015005 | -1 | 0 | 0.0 | 0.0 | 0.00 | 0.51 | 0.00 | 97 | 1017.0 |
| 20260504014505 | -1 | 0 | 0.0 | 0.0 | 0.00 | 0.51 | 0.00 | 97 | 1017.1 |
| 20260504014005 | -1 | 0 | 0.0 | 0.0 | 0.00 | 0.51 | 0.00 | 96 | 1017.0 |
| 20260504013505 | -1 | 0 | 0.0 | 0.0 | 0.00 | 0.51 | 0.00 | 96 | 1017.2 |
| 20260504013005 | -1 | 0 | 0.0 | 0.0 | 0.00 | 0.51 | 0.00 | 96 | 1017.2 |
| 20260504012505 | -1 | 0 | 0.0 | 0.0 | 0.00 | 0.51 | 0.00 | 96 | 1017.2 |
| 20260504012005 | -1 | 0 | 0.0 | 0.0 | 0.00 | 0.51 | 0.00 | 96 | 1017.1 |
| 20260504011505 | -1 | 0 | 0.0 | 0.0 | 0.00 | 0.51 | 0.00 | 96 | 1017.2 |
| 20260504011012 | -1 | 0 | 0.0 | 0.0 | 0.00 | 0.51 | 0.00 | 96 | 1016.8 |
| 20260504010505 | -1 | 0 | 0.0 | 0.0 | 0.00 | 0.51 | 0.00 | 96 | 1016.9 |
| 20260504010005 | -1 | 0 | 0.0 | 0.0 | 0.00 | 0.51 | 0.00 | 96 | 1017.0 |
| 20260504005505 | -1 | 0 | 0.0 | 0.0 | 0.00 | 0.51 | 0.00 | 96 | 1017.0 |
| 20260504005006 | -1 | 0 | 0.0 | 0.0 | 0.00 | 0.51 | 0.00 | 96 | 1016.9 |
| 20260504004505 | -1 | 0 | 0.0 | 0.0 | 0.00 | 0.51 | 0.00 | 96 | 1016.9 |
| 20260504004008 | -1 | 0 | 0.0 | 0.0 | 0.00 | 0.51 | 0.00 | 96 | 1017.0 |
| 20260504003505 | -1 | 0 | 0.0 | 0.0 | 0.00 | 0.51 | 0.00 | 96 | 1017.1 |
| 20260504002505 | -1 | 0 | 0.0 | 0.0 | 0.00 | 0.51 | 0.00 | 96 | 1017.1 |
| 20260504002005 | -1 | 0 | 0.0 | 0.0 | 0.00 | 0.51 | 0.00 | 96 | 1017.0 |
| 20260504001505 | -1 | 0 | 0.0 | 0.0 | 0.00 | 0.51 | 0.00 | 96 | 1017.0 |
| 20260504001005 | -1 | 0 | 0.0 | 0.0 | 0.00 | 0.51 | 0.00 | 96 | 1017.2 |
| 20260504000505 | -1 | 0 | 0.0 | 0.0 | 0.00 | 0.51 | 0.00 | 96 | 1017.0 |
| 20260504000005 | -1 | 0 | 0.0 | 0.0 | 0.00 | 0.51 | 0.00 | 96 | 1017.0 |
| 20260503235005 | -1 | 0 | 0.0 | 0.0 | 0.00 | 0.51 | 0.00 | 95 | 1016.9 |
| 20260503234505 | -1 | 0 | 0.0 | 0.0 | 0.00 | 0.51 | 0.00 | 95 | 1016.8 |
| 20260503234006 | -1 | 0 | 0.0 | 0.0 | 0.00 | 0.51 | 0.00 | 95 | 1017.0 |
| 20260503233505 | -1 | 0 | 0.0 | 0.0 | 0.00 | 0.51 | 0.00 | 95 | 1017.0 |
| 20260503232506 | -1 | 0 | 0.0 | 0.0 | 0.00 | 0.51 | 0.00 | 95 | 1017.1 |
| 20260503232005 | -1 | 0 | 0.0 | 0.0 | 0.00 | 0.51 | 0.00 | 95 | 1017.2 |
| 20260503231505 | -1 | 0 | 0.0 | 0.0 | 0.00 | 0.51 | 0.00 | 95 | 1017.3 |
| 20260503231005 | 0 | 0 | 0.0 | 0.0 | 0.00 | 0.51 | 0.00 | 95 | 1017.3 |
| 20260503230506 | 0 | 0 | 0.0 | 0.0 | 0.00 | 0.51 | 0.00 | 95 | 1017.1 |
| 20260503230006 | 0 | 0 | 0.0 | 0.0 | 0.00 | 0.51 | 0.00 | 95 | 1017.2 |
| 20260503225505 | 0 | 0 | 0.0 | 0.0 | 0.00 | 0.51 | 0.00 | 95 | 1017.1 |
| 20260503225005 | 0 | 0 | 0.0 | 0.0 | 0.00 | 0.51 | 0.00 | 94 | 1017.3 |
| 20260503224505 | 0 | 0 | 0.0 | 0.0 | 0.00 | 0.51 | 0.00 | 94 | 1017.2 |
| 20260503222505 | 0 | 0 | 0.0 | 0.0 | 0.00 | 0.51 | 0.00 | 94 | 1017.4 |
| 20260503222005 | 0 | 0 | 0.0 | 0.0 | 0.00 | 0.51 | 0.00 | 94 | 1017.4 |
| 20260503221506 | 0 | 0 | 0.0 | 0.0 | 0.00 | 0.51 | 0.00 | 94 | 1017.5 |
| 20260503221006 | 0 | 0 | 0.0 | 0.0 | 0.00 | 0.51 | 0.00 | 94 | 1017.3 |
| 20260503220506 | 0 | 0 | 0.0 | 0.0 | 0.00 | 0.51 | 0.00 | 94 | 1017.3 |
| 20260503215005 | 0 | 0 | 0.0 | 0.0 | 0.00 | 0.51 | 0.00 | 93 | 1017.3 |
| 20260503214005 | 0 | 0 | 0.0 | 0.0 | 0.00 | 0.51 | 0.00 | 93 | 1017.2 |
| 20260503213505 | 0 | 0 | 0.0 | 0.0 | 0.00 | 0.51 | 0.00 | 93 | 1017.4 |
| 20260503213005 | 0 | 0 | 0.0 | 0.0 | 0.00 | 0.51 | 0.00 | 93 | 1017.2 |
| 20260503212506 | 0 | 0 | 0.0 | 0.0 | 0.00 | 0.51 | 0.00 | 93 | 1017.3 |
| 20260503212005 | 0 | 0 | 0.0 | 0.0 | 0.00 | 0.51 | 0.00 | 92 | 1017.2 |
| 20260503211505 | 0 | 0 | 0.0 | 0.0 | 0.00 | 0.51 | 0.00 | 92 | 1017.2 |
| 20260503211005 | 0 | 0 | 0.0 | 0.0 | 0.00 | 0.51 | 0.00 | 92 | 1017.3 |
| 20260503210505 | 0 | 0 | 0.0 | 0.0 | 0.00 | 0.51 | 0.00 | 92 | 1017.1 |
| 20260503210009 | 0 | 0 | 0.0 | 0.0 | 0.00 | 0.51 | 0.00 | 92 | 1017.1 |
| 20260503205505 | 0 | 0 | 0.0 | 0.0 | 0.00 | 0.51 | 0.51 | 92 | 1017.1 |
| 20260503205005 | 0 | 0 | 0.0 | 0.0 | 0.00 | 0.51 | 0.51 | 92 | 1017.1 |
| 20260503204505 | 0 | 0 | 0.0 | 0.0 | 0.00 | 0.51 | 0.51 | 92 | 1017.0 |
| 20260503203505 | 0 | 0 | 0.0 | 0.0 | 0.00 | 0.51 | 0.51 | 92 | 1017.3 |
| 20260503203005 | 1 | 0 | 0.0 | 0.0 | 0.00 | 0.51 | 0.51 | 92 | 1017.4 |
| 20260503202507 | 1 | 0 | 0.0 | 0.0 | 0.00 | 0.51 | 0.51 | 92 | 1017.3 |
| 20260503202006 | 1 | 0 | 0.0 | 0.0 | 0.00 | 0.51 | 0.51 | 91 | 1017.4 |
| 20260503201506 | 1 | 0 | 0.0 | 0.0 | 0.00 | 0.51 | 0.51 | 91 | 1017.3 |
| 20260503201005 | 1 | 0 | 0.0 | 0.0 | 0.00 | 0.51 | 0.51 | 91 | 1017.4 |
| 20260503195506 | 1 | 0 | 0.0 | 0.0 | 0.00 | 0.51 | 0.51 | 91 | 1017.3 |
| 20260503195005 | 1 | 0 | 0.0 | 0.0 | 0.00 | 0.51 | 0.51 | 91 | 1017.4 |
| 20260503194505 | 1 | 0 | 0.0 | 0.0 | 0.00 | 0.51 | 0.51 | 91 | 1017.3 |
| 20260503194005 | 1 | 0 | 0.0 | 0.0 | 0.00 | 0.51 | 0.51 | 91 | 1017.3 |
| 20260503193506 | 1 | 0 | 0.0 | 0.0 | 0.00 | 0.51 | 0.51 | 91 | 1017.4 |
| 20260503193006 | 1 | 0 | 0.0 | 0.0 | 0.00 | 0.51 | 0.51 | 90 | 1017.3 |
| 20260503192505 | 1 | 0 | 0.0 | 0.0 | 0.00 | 0.51 | 0.51 | 90 | 1017.2 |
| 20260503192005 | 1 | 0 | 0.0 | 0.0 | 0.00 | 0.51 | 0.51 | 89 | 1017.1 |
| 20260503190505 | 1 | 0 | 0.0 | 0.0 | 0.00 | 0.51 | 0.51 | 88 | 1017.1 |
| 20260503190005 | 2 | 0 | 0.0 | 0.0 | 0.00 | 0.51 | 0.51 | 88 | 1016.9 |
| 20260503185505 | 2 | 0 | 0.0 | 0.0 | 0.00 | 0.51 | 0.51 | 87 | 1016.8 |
| 20260503184005 | 2 | 0 | 0.0 | 0.0 | 0.00 | 0.51 | 0.51 | 86 | 1016.6 |
| 20260503183505 | 2 | 0 | 0.0 | 0.0 | 0.00 | 0.51 | 0.51 | 85 | 1016.8 |
| 20260503183005 | 2 | 0 | 0.0 | 0.0 | 0.00 | 0.51 | 0.51 | 84 | 1016.7 |
| 20260503182505 | 3 | 0 | 0.0 | 0.0 | 0.00 | 0.51 | 0.51 | 83 | 1016.6 |
| 20260503182008 | 3 | 0 | 0.0 | 0.0 | 0.00 | 0.51 | 0.51 | 83 | 1016.3 |
| 20260503181506 | 3 | 0 | 0.0 | 0.0 | 0.00 | 0.51 | 0.51 | 83 | 1016.3 |
| 20260503181005 | 3 | 181 | 0.0 | 1.6 | 0.00 | 0.51 | 0.51 | 83 | 1016.2 |
| 20260503180506 | 3 | 252 | 1.6 | 6.4 | 0.00 | 0.51 | 0.51 | 83 | 1016.3 |
| 20260503180005 | 4 | 261 | 1.6 | 6.4 | 0.00 | 0.51 | 0.51 | 84 | 1016.2 |
| 20260503175505 | 3 | 0 | 0.0 | 0.0 | 0.00 | 0.51 | 0.51 | 85 | 1016.2 |
| 20260503175005 | 3 | 0 | 0.0 | 0.0 | 0.00 | 0.51 | 0.51 | 85 | 1016.1 |
| 20260503174505 | 3 | 0 | 0.0 | 0.0 | 0.00 | 0.51 | 0.51 | 84 | 1016.2 |
| 20260503174010 | 3 | 0 | 0.0 | 0.0 | 0.00 | 0.51 | 0.51 | 83 | 1016.2 |
| 20260503173508 | 3 | 0 | 0.0 | 0.0 | 0.00 | 0.51 | 0.51 | 83 | 1016.4 |
| 20260503173005 | 4 | 0 | 0.0 | 0.0 | 0.00 | 0.51 | 0.51 | 82 | 1016.2 |
| 20260503172505 | 4 | 0 | 0.0 | 0.0 | 0.00 | 0.51 | 0.51 | 81 | 1016.1 |
| 20260503171505 | 5 | 0 | 0.0 | 0.0 | 0.00 | 0.51 | 0.51 | 77 | 1016.1 |
| 20260503171006 | 5 | 0 | 0.0 | 0.0 | 0.00 | 0.51 | 0.51 | 75 | 1015.9 |
| 20260503170507 | 6 | 0 | 0.0 | 0.0 | 0.00 | 0.51 | 0.51 | 73 | 1015.9 |
| 20260503151005 | 10 | 328 | 8.0 | 16.1 | 0.00 | 0.51 | 0.51 | 55 | 1014.9 |
| 20260503150505 | 10 | 162 | 9.7 | 16.1 | 0.00 | 0.51 | 0.51 | 56 | 1014.8 |
| 20260503131005 | 6 | 340 | 0.0 | 3.2 | 0.00 | 0.51 | 0.51 | 75 | 1014.9 |
| 20260503130505 | 6 | 314 | 0.0 | 1.6 | 0.00 | 0.51 | 0.51 | 77 | 1015.0 |
| 20260503110505 | 3 | 190 | 6.4 | 11.3 | 0.30 | 0.51 | 0.48 | 69 | 1015.8 |
| 20260503090505 | 5 | 225 | 0.0 | 3.2 | 0.15 | 0.20 | 0.18 | 89 | 1014.3 |
| 20260503081505 | 7 | 259 | 11.3 | 12.9 | 0.00 | 0.05 | 0.03 | 64 | 1013.5 |
| 20260503072505 | 11 | 116 | 4.8 | 9.7 | 0.03 | 0.05 | 0.03 | 53 | 1013.1 |
| 20260503072005 | 10 | 134 | 4.8 | 9.7 | 0.03 | 0.05 | 0.03 | 51 | 1013.1 |
| 20260503071506 | 10 | 151 | 4.8 | 9.7 | 0.03 | 0.10 | 0.03 | 52 | 1013.0 |
| 20260503070506 | 11 | 108 | 1.6 | 11.3 | 0.03 | 0.10 | 0.03 | 56 | 1013.0 |
| 20260503055005 | 3 | 242 | 0.0 | 3.2 | 0.00 | 0.13 | 0.00 | 100 | 1012.7 |
| 20260503054505 | 3 | 254 | 1.6 | 3.2 | 0.00 | 0.15 | 0.00 | 100 | 1012.8 |
| 20260503054006 | 2 | 279 | 1.6 | 4.8 | 0.00 | 0.15 | 0.00 | 100 | 1012.8 |
| 20260503053505 | 2 | 255 | 1.6 | 4.8 | 0.00 | 0.15 | 0.00 | 100 | 1013.1 |
| 20260503053005 | 1 | 209 | 1.6 | 4.8 | 0.00 | 0.15 | 0.00 | 100 | 1013.2 |
| 20260503052507 | 1 | 286 | 1.6 | 4.8 | 0.00 | 0.18 | 0.00 | 100 | 1013.0 |
| 20260503052005 | 1 | 299 | 1.6 | 4.8 | 0.00 | 0.18 | 0.00 | 100 | 1013.2 |